Location: Broek
(53.2737°N, 5.9967°E)
Time: 20:46:53
(UTC+00:00)

CZ-4B R/B - Pass Details

Date: 10 October 2024
Orbit: 457 x 601 km, 97.9° (Epoch: 10 November)

Event Time Altitude Azimuth Distance (km) Brightness Sun altitude
Exits shadow 18:18:18 18° 127° (SE) 1,494 4.5 -13.9°
Maximum altitude 18:21:01 39° 67° (ENE) 910 3.5 -14.3°
Drops below altitude 10° 18:24:58 10° 358° (N) 1,943 5.7 -14.9°
Sets 18:27:12 0° 351° (N) 2,831 6.7 -15.2°
